Location: Passau
(48.5830°N, 13.4830°E)
Time: 21:45:42
(UTC+02:00)

S-56A Canister/Altair - Pass Details

Date: 24 May 2024
Orbit: 637 x 2489 km, 38.9° (Epoch: 16 June)

Event Time Altitude Azimuth Distance (km) Brightness Sun altitude
Rises 03:59:04 0° 181° (S) 6,126 11.7 -10.2°
Reaches altitude 10° 04:06:41 10° 158° (SSE) 4,942 11.4 -9.4°
Maximum altitude 04:11:39 13° 137° (SE) 4,508 11.4 -8.8°
Drops below altitude 10° 04:16:13 10° 115° (ESE) 4,494 11.7 -8.3°
Sets 04:22:14 0° 90° (E) 5,087 12.5 -7.6°
